Torna al catalogo

COSMOS 2251 DEB

AttivoLEO
NORAD 34613·DEBRIS·🇷🇺 Russia

Lanciato Jun 16, 1993 da Plesetsk Cosmodrome

Loading…

Prossimi Passaggi (prossime 24 ore)

TLE

AggiornatoSource: Space-Track

Epoca: Sep 14, 2026, 10:49 UTC

1 34613U 93036WJ  26257.45070013  .00001392  00000-0  53784-3 0  9995
2 34613  73.9623 137.2192 0109342 267.0783 271.0844 14.27891378903969

Traccia COSMOS 2251 DEB in tempo reale con AllMySat

Download on the App Store